[[{"header":{"parameterUnit":"m.s-1","parameterCategory":1,"la1":30.2992,"la2":30.254,"lo1":-89.0895,"lo2":-89.0443,"dy":0.0025,"dx":0.0025,"nx":19,"ny":19,"refTime":"2026-05-05T21:00:00:Z","depth":0,"parameterNumber":2,"parameterNumberName":"U-component_of_WINDS"},"data":[0,0,0,-1.4183,-1.4185,-1.4316,-1.4317,-1.447,-1.4472,0,0,0,0,0,0,0,0,0,0,0,-1.4134,-1.4135,-1.4182,-1.4185,-1.4316,-1.4317,-1.447,-1.4472,0,0,0,0,0,0,0,0,0,0,0,-1.4134,-1.4135,-1.4136,-1.4186,-1.4316,-1.4317,-1.447,-1.4376,0,0,0,0,0,0,0,0,0,0,-1.4252,-1.4197,-1.4135,-1.4136,-1.4187,-1.4316,-1.4317,-1.4372,-1.4382,-1.4405,0,-1.4421,0,-1.4449,-1.4481,-1.4481,0,0,0,-1.4193,-1.4189,-1.4233,-1.4136,-1.4188,-1.4316,-1.4259,-1.4378,-1.4389,-1.4418,-1.4424,-1.443,-1.4451,-1.4482,-1.4482,-1.4586,-1.4586,0,0,-1.4186,-1.4153,-1.4225,-1.424,-1.4217,-1.4255,-1.4263,-1.4385,-1.4389,-1.4424,-1.4434,-1.4454,-1.4483,-1.4484,-1.4586,-1.4586,0,0,0,-1.416,-1.4147,-1.4189,-1.4233,-1.4257,-1.4259,-1.4268,-1.4384,-1.44,-1.4436,-1.4456,-1.4484,-1.4485,-1.4586,-1.4586,-1.456,0,0,0,-1.4156,-1.4133,-1.4185,-1.4166,-1.4255,-1.4322,-1.4264,-1.4392,-1.4406,-1.4455,-1.4484,-1.4487,-1.4586,-1.4586,-1.4561,-1.4554,0,0,0,-1.4129,-1.413,-1.4145,-1.4164,-1.4219,-1.4321,-1.4344,-1.4396,-1.4418,-1.4482,-1.4487,-1.4586,-1.4586,-1.4561,-1.4554,-1.4571,0,0,0,-1.4091,-1.4121,-1.4144,-1.4185,-1.4218,-1.4304,-1.4344,-1.441,-1.4461,-1.4484,-1.4586,-1.4586,-1.4561,-1.4555,-1.4571,-1.4579,-1.4579,0,0,-1.411,-1.4122,-1.4149,-1.4173,-1.4246,-1.4286,-1.4356,-1.4435,-1.4471,-1.4546,-1.4549,-1.4561,-1.4554,-1.4571,-1.4592,-1.4592,0,0,0,-1.4144,-1.4162,-1.4189,-1.4235,-1.4295,-1.4347,-1.4418,-1.4447,-1.4512,-1.4502,-1.4573,-1.457,-1.4581,-1.4586,-1.4586,-1.4598,-1.4587,-1.4587,-1.4587,-1.4123,-1.4168,-1.4215,-1.4276,-1.4321,-1.4394,-1.4435,-1.4487,-1.4519,-1.4535,-1.4557,-1.4564,-1.4569,-1.4569,-1.4581,-1.4566,-1.4565,-1.4565,-1.4565,-1.4155,-1.4188,-1.4231,-1.4292,-1.4339,-1.4392,-1.4464,-1.4485,-1.4542,-1.4551,-1.4563,-1.4569,-1.4567,-1.458,-1.4564,-1.4564,-1.4564,-1.4564,-1.4565,-1.4146,-1.4169,-1.4204,-1.4277,-1.4328,-1.4389,-1.4441,-1.4483,-1.4523,-1.4535,-1.4563,-1.4564,-1.457,-1.4546,-1.4546,-1.4546,-1.4546,-1.4546,-1.4546,-1.4122,-1.4162,-1.42,-1.4267,-1.4303,-1.4355,-1.443,-1.4467,-1.4519,-1.4545,-1.4546,-1.4576,-1.4559,-1.4553,-1.4546,-1.4546,-1.4546,-1.4546,-1.4546,-1.4137,-1.414,-1.4199,-1.4234,-1.4317,-1.4365,-1.4418,-1.449,-1.4527,-1.4551,-1.458,-1.456,-1.4575,-1.4576,-1.4572,-1.457,-1.457,-1.457,-1.457,-1.4129,-1.4141,-1.421,-1.4265,-1.4323,-1.4377,-1.4443,-1.4502,-1.4564,-1.4589,-1.4596,-1.4594,-1.4593,-1.4609,-1.4609,-1.4605,-1.4612,-1.4612,-1.4612,-1.414,-1.416,-1.4207,-1.4266,-1.4334,-1.4391,-1.4455,-1.4517,-1.4588,-1.4615,-1.4611,-1.4609,-1.4606,-1.4603,-1.4629,-1.4628,-1.4622,0,0]},{"header":{"parameterUnit":"m.s-1","parameterCategory":1,"la1":30.2992,"la2":30.254,"lo1":-89.0895,"lo2":-89.0443,"dy":0.0025,"dx":0.0025,"nx":19,"ny":19,"refTime":"2026-05-05T21:00:00:Z","depth":0,"parameterNumber":3,"parameterNumberName":"V-component_of_WINDS"},"data":[0,0,0,6.5812,6.5815,6.5918,6.5919,6.6058,6.606,0,0,0,0,0,0,0,0,0,0,0,6.579,6.5792,6.5812,6.5815,6.5918,6.5919,6.6058,6.606,0,0,0,0,0,0,0,0,0,0,0,6.579,6.5791,6.5793,6.5816,6.5918,6.5919,6.6058,6.5976,0,0,0,0,0,0,0,0,0,0,6.5874,6.5863,6.5791,6.5793,6.5816,6.5918,6.5919,6.5972,6.5981,6.6016,0,6.6053,0,6.6059,6.607,6.6071,0,0,0,6.5808,6.5856,6.5876,6.5793,6.5817,6.5918,6.587,6.5977,6.5988,6.6029,6.6055,6.606,6.6061,6.6071,6.6072,6.6306,6.6307,0,0,6.5802,6.5813,6.5869,6.5884,6.5873,6.5866,6.5873,6.5983,6.6011,6.6055,6.6063,6.6064,6.6072,6.6073,6.6304,6.6306,0,0,0,6.5791,6.5809,6.5827,6.5878,6.5896,6.587,6.5877,6.6006,6.6011,6.6064,6.6065,6.6073,6.6075,6.6303,6.6305,6.6387,0,0,0,6.5787,6.5803,6.5825,6.5832,6.5895,6.5954,6.5898,6.6004,6.6016,6.6065,6.6073,6.6076,6.6301,6.6304,6.6382,6.6423,0,0,0,6.5781,6.5802,6.582,6.5833,6.5878,6.5952,6.5963,6.6006,6.6017,6.6071,6.6077,6.63,6.6304,6.6377,6.6415,6.6487,0,0,0,6.5776,6.5891,6.5822,6.595,6.5877,6.6003,6.5962,6.6054,6.6111,6.6074,6.6302,6.6305,6.6375,6.641,6.6482,6.6549,6.6579,0,0,6.5927,6.591,6.5984,6.5925,6.6067,6.5987,6.6139,6.6178,6.6172,6.626,6.6266,6.6384,6.6415,6.6486,6.6744,6.6768,0,0,0,6.6035,6.6089,6.6124,6.6179,6.6214,6.6246,6.6262,6.6276,6.6351,6.6221,6.643,6.6448,6.6489,6.652,6.6541,6.6574,6.632,6.632,6.632,6.6263,6.6251,6.6372,6.6372,6.6425,6.644,6.6482,6.6503,6.6473,6.6522,6.6548,6.6706,6.6744,6.6759,6.6794,6.6584,6.6584,6.6585,6.6585,6.6481,6.6553,6.6513,6.6616,6.66,6.6685,6.6703,6.6679,6.6753,6.6686,6.6722,6.6648,6.6785,6.6815,6.6591,6.659,6.6589,6.6588,6.6588,6.6627,6.6659,6.6677,6.6755,6.6815,6.681,6.6884,6.6867,6.6851,6.6887,6.6911,6.6909,6.6904,6.69,6.69,6.6901,6.6901,6.6902,6.6902,6.6771,6.6788,6.6854,6.6901,6.6933,6.6973,6.6989,6.7019,6.7048,6.7029,6.7029,6.6993,6.6803,6.6754,6.691,6.6909,6.6908,6.6907,6.6907,6.6994,6.6941,6.7043,6.7076,6.7127,6.7187,6.7166,6.7228,6.7251,6.7287,6.7244,6.7106,6.7086,6.707,6.7029,6.7248,6.7248,6.7248,6.7248,6.7116,6.7105,6.7205,6.7258,6.7308,6.7298,6.741,6.7422,6.7425,6.7438,6.7404,6.7349,6.7334,6.7322,6.7301,6.7262,6.7535,6.7536,6.7536,6.7251,6.7244,6.7344,6.735,6.7388,6.7421,6.7525,6.7584,6.7577,6.7547,6.7446,6.7434,6.7346,6.7318,6.7285,6.7251,6.7181,0,0]}]]